DW9271 Weather Reports


Display with metric or nautical units.
time (UTC)temp
F
wind
direction
speed
MPH
gust
MPH
rain 1hr
in
rain 24hr
in
rain mn
in
humidity
%
barometer
mb
20260902140041 66 271 1.0 4.0 0.00 0.24 0.24 96 1012.5
20260902134538 66 131 0.0 0.0 0.00 0.24 0.24 96 1012.4
20260902133040 65 130 0.0 1.0 0.00 0.24 0.24 96 1012.0
20260902131541 65 130 0.0 2.0 0.00 0.24 0.24 96 1012.2
20260902130035 65 130 0.0 0.0 0.00 0.24 0.24 95 1011.9
20260902124535 65 131 0.0 2.0 0.00 0.24 0.24 96 1011.4
20260902123035 65 130 0.0 3.0 0.00 0.24 0.24 96 1010.9
20260902121531 65 130 1.0 4.0 0.00 0.24 0.24 96 1011.3
20260902120030 64 129 0.0 4.0 0.00 0.24 0.24 95 1011.5
20260902114528 64 127 1.0 3.0 0.00 0.24 0.24 95 1011.2
20260902113027 64 120 0.0 3.0 0.02 0.24 0.24 95 1011.7
20260902111526 64 94 0.0 1.0 0.10 0.24 0.24 95 1012.0
20260902110025 64 91 0.0 3.0 0.24 0.24 0.24 94 1012.4
20260902104523 65 80 0.0 3.0 0.24 0.24 0.24 93 1012.8
20260902103034 65 323 0.0 4.0 0.21 0.21 0.21 92 1014.3
20260902101525 67 5 8.0 28.0 0.13 0.13 0.13 89 1014.6
20260902100013 71 333 0.0 2.0 0.00 0.00 0.00 93 1011.1
20260902094511 71 198 0.0 0.0 0.00 0.00 0.00 92 1010.3
20260902093010 71 198 0.0 0.0 0.00 0.00 0.00 92 1009.6
20260902091506 72 267 0.0 0.0 0.00 0.00 0.00 91 1010.1
20260902090006 72 267 0.0 1.0 0.00 0.00 0.00 91 1010.7
20260902084504 73 259 0.0 1.0 0.00 0.00 0.00 91 1011.2
20260902083003 73 265 0.0 3.0 0.00 0.00 0.00 91 1011.3
20260902081502 74 189 0.0 1.0 0.00 0.00 0.00 90 1010.6
20260902080002 74 190 0.0 1.0 0.00 0.00 0.00 89 1010.9
20260902074601 74 190 0.0 2.0 0.00 0.00 0.00 90 1010.5
20260902073100 73 191 0.0 2.0 0.00 0.00 0.00 90 1010.9
20260902071604 73 190 0.0 0.0 0.00 0.00 0.00 90 1010.7
20260902070057 73 190 0.0 0.0 0.00 0.00 0.00 89 1010.6
20260902064614 73 190 0.0 0.0 0.00 0.00 0.00 89 1010.4
20260902063058 73 191 0.0 0.0 0.00 0.00 0.00 90 1010.5
20260902061554 72 191 0.0 0.0 0.00 0.00 0.00 89 1010.9
20260902060106 73 191 0.0 0.0 0.00 0.00 0.00 88 1010.8
20260902054550 74 191 0.0 0.0 0.00 0.00 0.00 87 1010.6
20260902053049 74 191 0.0 0.0 0.00 0.00 0.00 86 1010.7
20260902051545 76 191 0.0 0.0 0.00 0.00 0.00 84 1010.6
20260902050101 77 191 0.0 0.0 0.00 0.00 0.00 84 1010.2
20260902044556 77 191 0.0 0.0 0.00 0.00 0.00 85 1010.4
20260902043039 78 191 0.0 0.0 0.00 0.00 0.00 86 1010.6
20260902041539 78 190 0.0 0.0 0.00 0.00 0.00 86 1010.5
20260902040041 78 190 0.0 0.0 0.00 0.00 0.00 86 1010.5
20260902034541 79 190 0.0 0.0 0.00 0.00 0.00 85 1010.5
20260902033038 79 190 0.0 0.0 0.00 0.00 0.00 85 1010.4
20260902031539 79 190 0.0 0.0 0.00 0.00 0.00 85 1010.2
20260902030036 80 190 0.0 0.0 0.00 0.00 0.00 84 1010.1
20260902024537 80 190 0.0 0.0 0.00 0.00 0.00 84 1009.9
20260902023035 80 190 0.0 0.0 0.00 0.00 0.00 83 1009.9
20260902021546 81 190 0.0 2.0 0.00 0.00 0.00 82 1009.9
20260902020034 81 190 0.0 1.0 0.00 0.00 0.00 81 1010.0
20260902014540 82 190 0.0 3.0 0.00 0.00 0.00 79 1009.9
20260902013033 82 205 0.0 3.0 0.00 0.00 0.00 78 1009.7
20260902011533 83 197 0.0 4.0 0.00 0.00 0.00 77 1009.6
20260902010032 83 261 0.0 3.0 0.00 0.00 0.00 76 1009.5
20260902004531 83 216 0.0 2.0 0.00 0.00 0.00 75 1009.3
20260902003038 84 202 0.0 1.0 0.00 0.00 0.00 74 1009.2
20260902001530 84 207 0.0 5.0 0.00 0.00 0.00 73 1009.0
20260902000030 85 204 0.0 4.0 0.00 0.00 0.00 72 1008.8
20260901234529 86 200 0.0 3.0 0.00 0.00 0.00 70 1008.6
20260901233025 87 200 0.0 3.0 0.00 0.00 0.00 68 1009.0
20260901231523 88 277 0.0 5.0 0.00 0.00 0.00 65 1009.3
20260901230024 88 267 0.0 6.0 0.00 0.00 0.00 64 1009.3
20260901224524 89 325 0.0 5.0 0.00 0.00 0.00 62 1009.4
20260901223038 90 325 0.0 8.0 0.00 0.00 0.00 61 1009.4
20260901221522 90 202 0.0 4.0 0.00 0.00 0.00 60 1009.4
20260901220031 92 195 0.0 4.0 0.00 0.00 0.00 59 1009.3
20260901214521 93 291 0.0 8.0 0.00 0.00 0.00 56 1009.2
20260901213020 93 198 1.0 6.0 0.00 0.00 0.00 57 1009.3
20260901211517 92 266 2.0 8.0 0.00 0.00 0.00 57 1009.4
20260901210014 91 200 1.0 5.0 0.00 0.00 0.00 59 1009.5
20260901204512 90 284 0.0 7.0 0.00 0.00 0.00 60 1009.6
20260901203012 91 239 1.0 4.0 0.00 0.00 0.00 61 1009.6
20260901201511 90 291 0.0 6.0 0.00 0.00 0.00 61 1009.7
20260901200009 91 279 2.0 4.0 0.00 0.00 0.00 64 1009.9
20260901194511 91 290 1.0 5.0 0.00 0.00 0.00 64 1010.0
20260901193003 90 276 2.0 7.0 0.00 0.00 0.00 66 1010.1
20260901191503 88 290 2.0 5.0 0.00 0.00 0.00 68 1010.2
20260901190003 88 283 0.0 5.0 0.00 0.00 0.00 67 1010.2
20260901184601 89 205 0.0 4.0 0.00 0.00 0.00 66 1010.2
20260901183058 88 256 2.0 5.0 0.00 0.00 0.00 70 1010.4
20260901181601 87 279 1.0 7.0 0.00 0.00 0.00 71 1010.4
20260901180053 86 319 0.0 4.0 0.00 0.00 0.00 74 1010.5
20260901174552 86 271 3.0 7.0 0.00 0.00 0.00 75 1010.8
20260901173050 86 294 1.0 4.0 0.00 0.00 0.00 77 1010.8
20260901171604 85 281 1.0 4.0 0.00 0.00 0.00 79 1011.0
20260901170048 84 274 2.0 5.0 0.00 0.00 0.00 80 1011.1
20260901164543 83 323 0.0 5.0 0.00 0.00 0.00 83 1011.2
20260901163037 82 335 1.0 4.0 0.00 0.00 0.00 85 1011.4
20260901161533 80 266 1.0 4.0 0.00 0.00 0.00 88 1011.6
20260901160029 79 300 0.0 4.0 0.00 0.00 0.00 91 1011.7
20260901154527 78 310 3.0 7.0 0.00 0.00 0.00 92 1011.8
20260901153024 77 257 0.0 3.0 0.00 0.00 0.00 94 1011.6
20260901151521 76 278 0.0 2.0 0.00 0.00 0.00 95 1011.5
20260901150019 76 292 0.0 3.0 0.00 0.00 0.00 96 1011.4
20260901144517 76 300 0.0 3.0 0.00 0.00 0.00 96 1011.4
20260901143017 75 276 0.0 4.0 0.00 0.00 0.00 96 1011.3
20260901141531 75 261 0.0 4.0 0.00 0.00 0.00 97 1011.2